| time (UTC) | temp F | wind direction | speed MPH | gust MPH | rain 1hr in | rain 24hr in | rain mn in | humidity % | barometer mb |
| 20260901040617 | 87 | 126 | 0.0 | 4.0 | 0.00 | 0.00 | 0.00 | 49 | 1015.0 |
| 20260901040112 | 87 | 157 | 0.0 | 2.0 | 0.00 | 0.00 | 0.00 | 50 | 1014.8 |
| 20260901035610 | 87 | 52 | 0.0 | 2.0 | 0.00 | 0.00 | 0.00 | 49 | 1014.8 |
| 20260901035109 | 87 | 135 | 0.0 | 2.0 | 0.00 | 0.00 | 0.00 | 49 | 1014.9 |
| 20260901034608 | 88 | 123 | 2.0 | 4.0 | 0.00 | 0.00 | 0.00 | 48 | 1014.7 |
| 20260901034103 | 89 | 87 | 2.0 | 2.0 | 0.00 | 0.00 | 0.00 | 47 | 1014.8 |
| 20260901033602 | 89 | 111 | 0.0 | 2.0 | 0.00 | 0.00 | 0.00 | 47 | 1014.7 |
| 20260901033057 | 89 | 150 | 0.0 | 2.0 | 0.00 | 0.00 | 0.00 | 47 | 1014.5 |
| 20260901032555 | 89 | 108 | 2.0 | 2.0 | 0.00 | 0.00 | 0.00 | 47 | 1014.5 |
| 20260901032051 | 89 | 93 | 0.0 | 2.0 | 0.00 | 0.00 | 0.00 | 47 | 1014.7 |
| 20260901031546 | 89 | 124 | 2.0 | 3.0 | 0.00 | 0.00 | 0.00 | 46 | 1014.6 |
| 20260901031042 | 90 | 124 | 0.0 | 3.0 | 0.00 | 0.00 | 0.00 | 46 | 1014.5 |
| 20260901030542 | 90 | 135 | 2.0 | 2.0 | 0.00 | 0.00 | 0.00 | 46 | 1014.5 |
| 20260901030037 | 90 | 127 | 2.0 | 3.0 | 0.00 | 0.00 | 0.00 | 46 | 1014.5 |
| 20260901025531 | 90 | 133 | 2.0 | 4.0 | 0.00 | 0.00 | 0.00 | 45 | 1014.3 |
| 20260901025030 | 90 | 133 | 1.0 | 3.0 | 0.00 | 0.00 | 0.00 | 45 | 1014.1 |
| 20260901024526 | 90 | 154 | 0.0 | 3.0 | 0.00 | 0.00 | 0.00 | 45 | 1014.2 |
| 20260901024024 | 91 | 138 | 2.0 | 3.0 | 0.00 | 0.00 | 0.00 | 45 | 1014.1 |
| 20260901023518 | 90 | 135 | 1.0 | 3.0 | 0.00 | 0.00 | 0.00 | 45 | 1014.0 |
| 20260901023014 | 91 | 149 | 2.0 | 4.0 | 0.00 | 0.00 | 0.00 | 45 | 1013.9 |
| 20260901022509 | 90 | 149 | 2.0 | 3.0 | 0.00 | 0.00 | 0.00 | 45 | 1014.0 |
| 20260901022009 | 91 | 141 | 2.0 | 3.0 | 0.00 | 0.00 | 0.00 | 45 | 1013.6 |
| 20260901021505 | 91 | 144 | 2.0 | 2.0 | 0.00 | 0.00 | 0.00 | 45 | 1013.9 |
| 20260901021000 | 91 | 127 | 2.0 | 4.0 | 0.00 | 0.00 | 0.00 | 45 | 1013.6 |
| 20260901020455 | 91 | 124 | 1.0 | 3.0 | 0.00 | 0.00 | 0.00 | 45 | 1013.5 |
| 20260901015954 | 91 | 142 | 2.0 | 3.0 | 0.00 | 0.00 | 0.00 | 45 | 1013.7 |
| 20260901015451 | 91 | 126 | 2.0 | 4.0 | 0.00 | 0.00 | 0.00 | 44 | 1013.7 |
| 20260901014950 | 92 | 150 | 3.0 | 5.0 | 0.00 | 0.00 | 0.00 | 44 | 1013.5 |
| 20260901014447 | 92 | 145 | 2.0 | 4.0 | 0.00 | 0.00 | 0.00 | 44 | 1013.6 |
| 20260901013942 | 92 | 140 | 4.0 | 4.0 | 0.00 | 0.00 | 0.00 | 43 | 1013.5 |
| 20260901013438 | 92 | 153 | 3.0 | 4.0 | 0.00 | 0.00 | 0.00 | 43 | 1013.5 |
| 20260901004919 | 96 | 152 | 4.0 | 7.0 | 0.00 | 0.00 | 0.00 | 37 | 1013.4 |
| 20260901004418 | 96 | 152 | 4.0 | 7.0 | 0.00 | 0.00 | 0.00 | 37 | 1013.4 |
| 20260901003913 | 96 | 149 | 5.0 | 7.0 | 0.00 | 0.00 | 0.00 | 38 | 1013.3 |
| 20260901003408 | 97 | 150 | 4.0 | 4.0 | 0.00 | 0.00 | 0.00 | 37 | 1013.1 |
| 20260901002906 | 97 | 135 | 3.0 | 4.0 | 0.00 | 0.00 | 0.00 | 37 | 1013.1 |
| 20260901002401 | 97 | 96 | 1.0 | 6.0 | 0.00 | 0.00 | 0.00 | 37 | 1013.3 |
| 20260901001900 | 98 | 137 | 6.0 | 9.0 | 0.00 | 0.00 | 0.00 | 36 | 1013.4 |
| 20260901001356 | 98 | 120 | 2.0 | 6.0 | 0.00 | 0.00 | 0.00 | 36 | 1013.2 |
| 20260901000852 | 98 | 103 | 3.0 | 6.0 | 0.00 | 0.00 | 0.00 | 35 | 1013.2 |
| 20260901000347 | 98 | 124 | 4.0 | 6.0 | 0.00 | 0.00 | 0.00 | 36 | 1013.2 |
| 20260831235845 | 98 | 114 | 3.0 | 5.0 | 0.00 | 0.00 | 0.00 | 36 | 1013.2 |
| 20260831235341 | 98 | 148 | 6.0 | 8.0 | 0.00 | 0.00 | 0.00 | 36 | 1013.4 |
| 20260831234836 | 98 | 151 | 6.0 | 9.0 | 0.00 | 0.00 | 0.00 | 36 | 1013.3 |
| 20260831234336 | 98 | 150 | 3.0 | 6.0 | 0.00 | 0.00 | 0.00 | 37 | 1013.3 |
| 20260831233831 | 98 | 134 | 2.0 | 7.0 | 0.00 | 0.00 | 0.00 | 36 | 1013.3 |
| 20260831233327 | 98 | 133 | 6.0 | 8.0 | 0.00 | 0.00 | 0.00 | 36 | 1013.3 |
| 20260831232822 | 98 | 145 | 6.0 | 10.0 | 0.00 | 0.00 | 0.00 | 36 | 1013.1 |
| 20260831232318 | 99 | 121 | 4.0 | 11.0 | 0.00 | 0.00 | 0.00 | 36 | 1013.3 |
| 20260831231814 | 99 | 132 | 3.0 | 11.0 | 0.00 | 0.00 | 0.00 | 36 | 1013.2 |
| 20260831231310 | 100 | 153 | 8.0 | 12.0 | 0.00 | 0.00 | 0.00 | 35 | 1013.2 |
| 20260831230805 | 99 | 146 | 9.0 | 11.0 | 0.00 | 0.00 | 0.00 | 36 | 1013.2 |
| 20260831230300 | 100 | 158 | 11.0 | 15.0 | 0.00 | 0.00 | 0.00 | 34 | 1013.1 |
| 20260831225759 | 100 | 109 | 4.0 | 10.0 | 0.00 | 0.00 | 0.00 | 35 | 1013.1 |
| 20260831225255 | 100 | 178 | 6.0 | 12.0 | 0.00 | 0.00 | 0.00 | 36 | 1013.3 |
| 20260831224750 | 100 | 136 | 3.0 | 11.0 | 0.00 | 0.00 | 0.00 | 34 | 1013.2 |
| 20260831224245 | 100 | 163 | 6.0 | 9.0 | 0.00 | 0.00 | 0.00 | 35 | 1013.2 |
| 20260831223740 | 101 | 100 | 1.0 | 8.0 | 0.00 | 0.00 | 0.00 | 35 | 1013.4 |
| 20260831223236 | 101 | 228 | 3.0 | 4.0 | 0.00 | 0.00 | 0.00 | 33 | 1013.3 |
| 20260831222732 | 101 | 193 | 3.0 | 3.0 | 0.00 | 0.00 | 0.00 | 33 | 1013.5 |
| 20260831222228 | 100 | 182 | 4.0 | 10.0 | 0.00 | 0.00 | 0.00 | 34 | 1013.6 |
| 20260831221723 | 99 | 178 | 2.0 | 10.0 | 0.00 | 0.00 | 0.00 | 35 | 1013.4 |
| 20260831221218 | 100 | 180 | 4.0 | 9.0 | 0.00 | 0.00 | 0.00 | 35 | 1013.6 |
| 20260831220713 | 100 | 160 | 7.0 | 12.0 | 0.00 | 0.00 | 0.00 | 37 | 1013.4 |
| 20260831220208 | 100 | 166 | 7.0 | 9.0 | 0.00 | 0.00 | 0.00 | 36 | 1013.5 |
| 20260831215703 | 100 | 166 | 2.0 | 8.0 | 0.00 | 0.00 | 0.00 | 36 | 1013.5 |
| 20260831215159 | 100 | 133 | 4.0 | 13.0 | 0.00 | 0.00 | 0.00 | 35 | 1013.7 |
| 20260831214656 | 100 | 155 | 6.0 | 10.0 | 0.00 | 0.00 | 0.00 | 36 | 1013.5 |
| 20260831214153 | 100 | 144 | 9.0 | 11.0 | 0.00 | 0.00 | 0.00 | 36 | 1013.7 |
| 20260831213648 | 99 | 167 | 9.0 | 17.0 | 0.00 | 0.00 | 0.00 | 37 | 1013.7 |
| 20260831213144 | 102 | 150 | 7.0 | 11.0 | 0.00 | 0.00 | 0.00 | 36 | 1013.6 |
| 20260831212640 | 101 | 187 | 3.0 | 9.0 | 0.00 | 0.00 | 0.00 | 33 | 1013.7 |
| 20260831212137 | 101 | 189 | 5.0 | 5.0 | 0.00 | 0.00 | 0.00 | 33 | 1013.7 |
| 20260831211635 | 99 | 153 | 4.0 | 10.0 | 0.00 | 0.00 | 0.00 | 34 | 1014.0 |
| 20260831211135 | 101 | 164 | 8.0 | 11.0 | 0.00 | 0.00 | 0.00 | 34 | 1014.1 |
| 20260831210630 | 102 | 134 | 3.0 | 9.0 | 0.00 | 0.00 | 0.00 | 34 | 1014.1 |
| 20260831210126 | 101 | 157 | 2.0 | 6.0 | 0.00 | 0.00 | 0.00 | 33 | 1014.1 |
| 20260831205620 | 100 | 163 | 4.0 | 7.0 | 0.00 | 0.00 | 0.00 | 36 | 1014.2 |
| 20260831205117 | 100 | 188 | 4.0 | 11.0 | 0.00 | 0.00 | 0.00 | 36 | 1014.4 |
| 20260831204616 | 100 | 223 | 0.0 | 12.0 | 0.00 | 0.00 | 0.00 | 36 | 1014.5 |
| 20260831204114 | 102 | 154 | 3.0 | 3.0 | 0.00 | 0.00 | 0.00 | 35 | 1014.5 |
| 20260831203614 | 101 | 172 | 7.0 | 7.0 | 0.00 | 0.00 | 0.00 | 34 | 1014.7 |
| 20260831203114 | 100 | 146 | 3.0 | 8.0 | 0.00 | 0.00 | 0.00 | 34 | 1014.5 |
| 20260831202613 | 100 | 153 | 5.0 | 15.0 | 0.00 | 0.00 | 0.00 | 35 | 1014.7 |
| 20260831202113 | 99 | 198 | 5.0 | 12.0 | 0.00 | 0.00 | 0.00 | 34 | 1014.5 |
| 20260831201612 | 100 | 146 | 4.0 | 7.0 | 0.00 | 0.00 | 0.00 | 34 | 1014.9 |
| 20260831201107 | 99 | 184 | 3.0 | 9.0 | 0.00 | 0.00 | 0.00 | 35 | 1014.9 |
| 20260831200603 | 100 | 159 | 6.0 | 12.0 | 0.00 | 0.00 | 0.00 | 36 | 1015.0 |
| 20260831200057 | 99 | 168 | 5.0 | 11.0 | 0.00 | 0.00 | 0.00 | 36 | 1015.0 |
| 20260831195553 | 100 | 159 | 8.0 | 12.0 | 0.00 | 0.00 | 0.00 | 35 | 1015.2 |
| 20260831195048 | 99 | 179 | 3.0 | 7.0 | 0.00 | 0.00 | 0.00 | 37 | 1015.3 |
| 20260831194543 | 99 | 170 | 8.0 | 10.0 | 0.00 | 0.00 | 0.00 | 37 | 1015.3 |
| 20260831194038 | 98 | 146 | 4.0 | 10.0 | 0.00 | 0.00 | 0.00 | 38 | 1015.4 |
| 20260831193533 | 98 | 187 | 4.0 | 11.0 | 0.00 | 0.00 | 0.00 | 39 | 1015.5 |
| 20260831193028 | 98 | 145 | 5.0 | 11.0 | 0.00 | 0.00 | 0.00 | 39 | 1015.5 |
| 20260831192523 | 98 | 163 | 8.0 | 8.0 | 0.00 | 0.00 | 0.00 | 39 | 1015.7 |
| 20260831192018 | 98 | 172 | 10.0 | 12.0 | 0.00 | 0.00 | 0.00 | 39 | 1015.6 |
| 20260831191514 | 99 | 136 | 3.0 | 5.0 | 0.00 | 0.00 | 0.00 | 36 | 1015.6 |
| 20260831191010 | 98 | 147 | 2.0 | 6.0 | 0.00 | 0.00 | 0.00 | 38 | 1015.7 |
| 20260831190506 | 98 | 157 | 4.0 | 5.0 | 0.00 | 0.00 | 0.00 | 41 | 1015.7 |
| 20260831190004 | 98 | 165 | 6.0 | 9.0 | 0.00 | 0.00 | 0.00 | 39 | 1015.7 |
| 20260831185500 | 98 | 142 | 7.0 | 12.0 | 0.00 | 0.00 | 0.00 | 40 | 1015.9 |
| 20260831185000 | 98 | 155 | 7.0 | 11.0 | 0.00 | 0.00 | 0.00 | 41 | 1015.8 |
| 20260831184454 | 98 | 159 | 7.0 | 13.0 | 0.00 | 0.00 | 0.00 | 40 | 1015.9 |
| 20260831183950 | 97 | 162 | 3.0 | 4.0 | 0.00 | 0.00 | 0.00 | 40 | 1016.0 |
| 20260831183449 | 98 | 191 | 8.0 | 10.0 | 0.00 | 0.00 | 0.00 | 39 | 1015.9 |
| 20260831182949 | 98 | 198 | 5.0 | 15.0 | 0.00 | 0.00 | 0.00 | 41 | 1016.1 |
| 20260831182444 | 97 | 34 | 0.0 | 2.0 | 0.00 | 0.00 | 0.00 | 41 | 1015.9 |
| 20260831181940 | 96 | 153 | 9.0 | 13.0 | 0.00 | 0.00 | 0.00 | 42 | 1016.1 |
| 20260831181435 | 96 | 165 | 4.0 | 10.0 | 0.00 | 0.00 | 0.00 | 42 | 1016.5 |
| 20260831180929 | 97 | 141 | 5.0 | 11.0 | 0.00 | 0.00 | 0.00 | 43 | 1016.5 |
| 20260831180424 | 96 | 162 | 7.0 | 10.0 | 0.00 | 0.00 | 0.00 | 45 | 1016.5 |
| 20260831175923 | 95 | 174 | 5.0 | 9.0 | 0.00 | 0.00 | 0.00 | 47 | 1016.8 |
| 20260831175420 | 95 | 159 | 4.0 | 9.0 | 0.00 | 0.00 | 0.00 | 46 | 1016.7 |
| 20260831174915 | 96 | 215 | 5.0 | 5.0 | 0.00 | 0.00 | 0.00 | 45 | 1016.8 |
| 20260831174410 | 96 | 141 | 2.0 | 5.0 | 0.00 | 0.00 | 0.00 | 47 | 1016.8 |
| 20260831173909 | 96 | 275 | 2.0 | 6.0 | 0.00 | 0.00 | 0.00 | 46 | 1016.9 |
| 20260831173409 | 95 | 87 | 4.0 | 5.0 | 0.00 | 0.00 | 0.00 | 46 | 1017.0 |
| 20260831172904 | 94 | 222 | 2.0 | 8.0 | 0.00 | 0.00 | 0.00 | 47 | 1017.1 |
| 20260831172400 | 95 | 195 | 5.0 | 9.0 | 0.00 | 0.00 | 0.00 | 47 | 1017.2 |
| 20260831171900 | 95 | 205 | 2.0 | 6.0 | 0.00 | 0.00 | 0.00 | 47 | 1017.2 |
| 20260831171356 | 94 | 159 | 2.0 | 6.0 | 0.00 | 0.00 | 0.00 | 48 | 1017.3 |
| 20260831170853 | 94 | 161 | 5.0 | 8.0 | 0.00 | 0.00 | 0.00 | 49 | 1017.2 |
| 20260831170348 | 94 | 161 | 7.0 | 11.0 | 0.00 | 0.00 | 0.00 | 48 | 1017.4 |
| 20260831165845 | 93 | 181 | 5.0 | 10.0 | 0.00 | 0.00 | 0.00 | 48 | 1017.3 |
| 20260831165341 | 93 | 178 | 6.0 | 8.0 | 0.00 | 0.00 | 0.00 | 48 | 1017.3 |
| 20260831164837 | 92 | 207 | 3.0 | 4.0 | 0.00 | 0.00 | 0.00 | 50 | 1017.5 |
| 20260831164333 | 93 | 240 | 4.0 | 5.0 | 0.00 | 0.00 | 0.00 | 47 | 1017.5 |
| 20260831163828 | 93 | 215 | 7.0 | 9.0 | 0.00 | 0.00 | 0.00 | 48 | 1017.3 |
| 20260831163324 | 92 | 222 | 2.0 | 6.0 | 0.00 | 0.00 | 0.00 | 48 | 1017.4 |
| 20260831162822 | 92 | 193 | 4.0 | 9.0 | 0.00 | 0.00 | 0.00 | 48 | 1017.5 |
| 20260831162318 | 92 | 178 | 0.0 | 8.0 | 0.00 | 0.00 | 0.00 | 50 | 1017.5 |
| 20260831161816 | 91 | 164 | 2.0 | 8.0 | 0.00 | 0.00 | 0.00 | 50 | 1017.5 |
| 20260831161313 | 91 | 284 | 2.0 | 7.0 | 0.00 | 0.00 | 0.00 | 51 | 1017.7 |
| 20260831160813 | 91 | 151 | 5.0 | 7.0 | 0.00 | 0.00 | 0.00 | 54 | 1017.5 |
| 20260831160308 | 90 | 168 | 2.0 | 4.0 | 0.00 | 0.00 | 0.00 | 55 | 1017.7 |
| 20260831155808 | 90 | 257 | 3.0 | 7.0 | 0.00 | 0.00 | 0.00 | 55 | 1017.7 |
| 20260831155306 | 90 | 221 | 4.0 | 6.0 | 0.00 | 0.00 | 0.00 | 54 | 1017.7 |
| 20260831154759 | 90 | 271 | 5.0 | 6.0 | 0.00 | 0.00 | 0.00 | 54 | 1017.9 |
| 20260831154255 | 89 | 196 | 3.0 | 6.0 | 0.00 | 0.00 | 0.00 | 56 | 1017.6 |
| 20260831153753 | 89 | 176 | 4.0 | 8.0 | 0.00 | 0.00 | 0.00 | 56 | 1017.7 |
| 20260831153249 | 89 | 135 | 2.0 | 7.0 | 0.00 | 0.00 | 0.00 | 56 | 1017.4 |
| 20260831152745 | 88 | 252 | 4.0 | 7.0 | 0.00 | 0.00 | 0.00 | 58 | 1017.5 |
| 20260831152241 | 88 | 277 | 2.0 | 6.0 | 0.00 | 0.00 | 0.00 | 57 | 1017.5 |
| 20260831151741 | 88 | 228 | 4.0 | 6.0 | 0.00 | 0.00 | 0.00 | 58 | 1017.4 |
| 20260831151235 | 88 | 204 | 4.0 | 6.0 | 0.00 | 0.00 | 0.00 | 60 | 1017.4 |
| 20260831150730 | 88 | 269 | 0.0 | 6.0 | 0.00 | 0.00 | 0.00 | 63 | 1017.4 |
| 20260831150226 | 87 | 205 | 3.0 | 5.0 | 0.00 | 0.00 | 0.00 | 63 | 1017.4 |
| 20260831145725 | 86 | 204 | 5.0 | 6.0 | 0.00 | 0.00 | 0.00 | 64 | 1017.4 |
| 20260831145222 | 86 | 237 | 2.0 | 9.0 | 0.00 | 0.00 | 0.00 | 65 | 1017.3 |
| 20260831144717 | 86 | 201 | 4.0 | 7.0 | 0.00 | 0.00 | 0.00 | 64 | 1017.4 |
| 20260831144213 | 86 | 178 | 6.0 | 9.0 | 0.00 | 0.00 | 0.00 | 65 | 1017.2 |
| 20260831143712 | 85 | 184 | 2.0 | 7.0 | 0.00 | 0.00 | 0.00 | 67 | 1017.2 |
| 20260831143208 | 85 | 277 | 4.0 | 6.0 | 0.00 | 0.00 | 0.00 | 66 | 1017.4 |
| 20260831142704 | 86 | 183 | 4.0 | 5.0 | 0.00 | 0.00 | 0.00 | 66 | 1017.3 |
| 20260831142159 | 85 | 276 | 4.0 | 4.0 | 0.00 | 0.00 | 0.00 | 67 | 1017.3 |
| 20260831141658 | 85 | 266 | 3.0 | 5.0 | 0.00 | 0.00 | 0.00 | 68 | 1017.2 |
| 20260831141153 | 84 | 209 | 4.0 | 5.0 | 0.00 | 0.00 | 0.00 | 69 | 1017.2 |
| 20260831140652 | 84 | 224 | 2.0 | 5.0 | 0.00 | 0.00 | 0.00 | 69 | 1017.3 |
| 20260831140147 | 83 | 172 | 3.0 | 6.0 | 0.00 | 0.00 | 0.00 | 70 | 1017.4 |
| 20260831135644 | 83 | 183 | 3.0 | 6.0 | 0.00 | 0.00 | 0.00 | 72 | 1017.2 |
| 20260831135141 | 83 | 156 | 5.0 | 5.0 | 0.00 | 0.00 | 0.00 | 71 | 1017.1 |
| 20260831134636 | 83 | 154 | 3.0 | 5.0 | 0.00 | 0.00 | 0.00 | 72 | 1017.0 |
| 20260831134131 | 82 | 162 | 7.0 | 9.0 | 0.00 | 0.00 | 0.00 | 73 | 1017.0 |
| 20260831133630 | 82 | 191 | 4.0 | 7.0 | 0.00 | 0.00 | 0.00 | 74 | 1016.8 |
| 20260831133126 | 82 | 169 | 4.0 | 6.0 | 0.00 | 0.00 | 0.00 | 75 | 1017.0 |
| 20260831132622 | 81 | 164 | 6.0 | 7.0 | 0.00 | 0.00 | 0.00 | 75 | 1016.9 |
| 20260831132120 | 81 | 174 | 4.0 | 6.0 | 0.00 | 0.00 | 0.00 | 76 | 1016.9 |
| 20260831131615 | 80 | 134 | 4.0 | 7.0 | 0.00 | 0.00 | 0.00 | 76 | 1016.7 |
| 20260831131112 | 80 | 149 | 5.0 | 7.0 | 0.00 | 0.00 | 0.00 | 76 | 1016.4 |
| 20260831130607 | 80 | 161 | 5.0 | 7.0 | 0.00 | 0.00 | 0.00 | 77 | 1016.6 |
| 20260831125600 | 79 | 148 | 4.0 | 5.0 | 0.00 | 0.00 | 0.00 | 78 | 1016.5 |
| 20260831125056 | 78 | 166 | 4.0 | 5.0 | 0.00 | 0.00 | 0.00 | 79 | 1016.3 |
| 20260831124553 | 78 | 142 | 2.0 | 5.0 | 0.00 | 0.00 | 0.00 | 79 | 1016.3 |
| 20260831124048 | 78 | 153 | 5.0 | 6.0 | 0.00 | 0.00 | 0.00 | 80 | 1016.3 |
| 20260831123547 | 78 | 151 | 4.0 | 6.0 | 0.00 | 0.00 | 0.00 | 79 | 1016.3 |
| 20260831123043 | 77 | 154 | 4.0 | 5.0 | 0.00 | 0.00 | 0.00 | 80 | 1016.3 |
| 20260831122537 | 77 | 138 | 2.0 | 5.0 | 0.00 | 0.00 | 0.00 | 79 | 1016.2 |
| 20260831122033 | 77 | 126 | 2.0 | 5.0 | 0.00 | 0.00 | 0.00 | 79 | 1016.1 |
| 20260831121532 | 77 | 135 | 3.0 | 4.0 | 0.00 | 0.00 | 0.00 | 78 | 1016.0 |
| 20260831121029 | 77 | 108 | 0.0 | 3.0 | 0.00 | 0.00 | 0.00 | 78 | 1015.9 |
| 20260831120527 | 77 | 154 | 2.0 | 3.0 | 0.00 | 0.00 | 0.00 | 78 | 1015.7 |
| 20260831120023 | 77 | 103 | 2.0 | 3.0 | 0.00 | 0.00 | 0.00 | 78 | 1015.8 |
| 20260831115519 | 77 | 143 | 2.0 | 3.0 | 0.00 | 0.00 | 0.00 | 78 | 1015.8 |
| 20260831115014 | 77 | 135 | 2.0 | 3.0 | 0.00 | 0.00 | 0.00 | 77 | 1015.6 |
| 20260831114513 | 77 | 124 | 2.0 | 4.0 | 0.00 | 0.00 | 0.00 | 77 | 1015.5 |
| 20260831114008 | 77 | 117 | 3.0 | 5.0 | 0.00 | 0.00 | 0.00 | 77 | 1015.7 |
| 20260831113508 | 77 | 143 | 2.0 | 4.0 | 0.00 | 0.00 | 0.00 | 76 | 1015.6 |
| 20260831113004 | 77 | 133 | 4.0 | 4.0 | 0.00 | 0.00 | 0.00 | 76 | 1015.4 |
| 20260831112503 | 77 | 147 | 2.0 | 3.0 | 0.00 | 0.00 | 0.00 | 76 | 1015.5 |
| 20260831111958 | 78 | 136 | 2.0 | 4.0 | 0.00 | 0.00 | 0.00 | 75 | 1015.5 |
| 20260831111454 | 78 | 154 | 3.0 | 3.0 | 0.00 | 0.00 | 0.00 | 75 | 1015.4 |
| 20260831110949 | 78 | 124 | 2.0 | 4.0 | 0.00 | 0.00 | 0.00 | 74 | 1015.5 |
| 20260831110444 | 78 | 143 | 2.0 | 3.0 | 0.00 | 0.00 | 0.00 | 74 | 1015.5 |
| 20260831105943 | 78 | 141 | 3.0 | 4.0 | 0.00 | 0.00 | 0.00 | 75 | 1015.4 |
| 20260831105439 | 78 | 175 | 0.0 | 3.0 | 0.00 | 0.00 | 0.00 | 74 | 1015.4 |
| 20260831104939 | 78 | 98 | 1.0 | 2.0 | 0.00 | 0.00 | 0.00 | 74 | 1015.2 |
| 20260831104435 | 79 | 115 | 1.0 | 2.0 | 0.00 | 0.00 | 0.00 | 73 | 1015.2 |
| 20260831103931 | 79 | 96 | 0.0 | 3.0 | 0.00 | 0.00 | 0.00 | 72 | 1015.2 |
| 20260831103426 | 79 | 115 | 0.0 | 3.0 | 0.00 | 0.00 | 0.00 | 72 | 1015.2 |
| 20260831102922 | 79 | 151 | 3.0 | 4.0 | 0.00 | 0.00 | 0.00 | 71 | 1015.2 |
| 20260831102421 | 79 | 151 | 4.0 | 5.0 | 0.00 | 0.00 | 0.00 | 71 | 1015.1 |
| 20260831101917 | 79 | 130 | 2.0 | 4.0 | 0.00 | 0.00 | 0.00 | 71 | 1015.2 |
| 20260831101412 | 79 | 141 | 3.0 | 3.0 | 0.00 | 0.00 | 0.00 | 71 | 1015.2 |
| 20260831100908 | 80 | 149 | 3.0 | 3.0 | 0.00 | 0.00 | 0.00 | 71 | 1015.3 |
| 20260831100404 | 80 | 157 | 3.0 | 4.0 | 0.00 | 0.00 | 0.00 | 71 | 1015.3 |
| 20260831095904 | 80 | 156 | 3.0 | 3.0 | 0.00 | 0.00 | 0.00 | 71 | 1015.2 |
| 20260831095403 | 80 | 165 | 2.0 | 3.0 | 0.00 | 0.00 | 0.00 | 70 | 1015.1 |
| 20260831094858 | 80 | 161 | 2.0 | 3.0 | 0.00 | 0.00 | 0.00 | 70 | 1014.9 |
| 20260831094348 | 80 | 146 | 1.0 | 4.0 | 0.00 | 0.00 | 0.00 | 70 | 1015.1 |
| 20260831093844 | 80 | 178 | 4.0 | 4.0 | 0.00 | 0.00 | 0.00 | 69 | 1015.2 |
| 20260831093339 | 80 | 177 | 2.0 | 4.0 | 0.00 | 0.00 | 0.00 | 69 | 1015.0 |
| 20260831092835 | 80 | 175 | 3.0 | 4.0 | 0.00 | 0.00 | 0.00 | 68 | 1014.9 |
| 20260831092331 | 80 | 165 | 3.0 | 5.0 | 0.00 | 0.00 | 0.00 | 68 | 1014.9 |
| 20260831091825 | 80 | 162 | 3.0 | 5.0 | 0.00 | 0.00 | 0.00 | 68 | 1015.0 |
| 20260831091321 | 80 | 168 | 5.0 | 6.0 | 0.00 | 0.00 | 0.00 | 67 | 1015.0 |
| 20260831090816 | 81 | 154 | 5.0 | 6.0 | 0.00 | 0.00 | 0.00 | 66 | 1014.9 |
| 20260831090312 | 81 | 170 | 3.0 | 5.0 | 0.00 | 0.00 | 0.00 | 66 | 1014.9 |
| 20260831085808 | 81 | 159 | 5.0 | 6.0 | 0.00 | 0.00 | 0.00 | 65 | 1015.0 |
| 20260831085258 | 81 | 158 | 6.0 | 6.0 | 0.00 | 0.00 | 0.00 | 65 | 1014.9 |
| 20260831084757 | 81 | 157 | 3.0 | 8.0 | 0.00 | 0.00 | 0.00 | 65 | 1014.8 |
| 20260831084253 | 81 | 171 | 3.0 | 5.0 | 0.00 | 0.00 | 0.00 | 65 | 1015.0 |
| 20260831083749 | 82 | 183 | 2.0 | 6.0 | 0.00 | 0.00 | 0.00 | 64 | 1014.7 |
| 20260831083245 | 82 | 167 | 4.0 | 5.0 | 0.00 | 0.00 | 0.00 | 63 | 1014.7 |
| 20260831082743 | 82 | 143 | 4.0 | 6.0 | 0.00 | 0.00 | 0.00 | 63 | 1014.8 |
| 20260831082238 | 82 | 164 | 4.0 | 7.0 | 0.00 | 0.00 | 0.00 | 63 | 1014.8 |
| 20260831081734 | 82 | 163 | 3.0 | 9.0 | 0.00 | 0.00 | 0.00 | 62 | 1014.7 |
| 20260831081230 | 82 | 162 | 6.0 | 7.0 | 0.00 | 0.00 | 0.00 | 62 | 1014.5 |
| 20260831080726 | 82 | 155 | 5.0 | 8.0 | 0.00 | 0.00 | 0.00 | 62 | 1014.5 |
| 20260831080225 | 82 | 154 | 4.0 | 6.0 | 0.00 | 0.00 | 0.00 | 62 | 1014.6 |
| 20260831075721 | 82 | 149 | 5.0 | 6.0 | 0.00 | 0.00 | 0.00 | 62 | 1014.6 |
| 20260831075217 | 82 | 162 | 4.0 | 4.0 | 0.00 | 0.00 | 0.00 | 61 | 1014.7 |
| 20260831074716 | 83 | 182 | 3.0 | 4.0 | 0.00 | 0.00 | 0.00 | 61 | 1014.4 |
| 20260831074211 | 83 | 152 | 2.0 | 5.0 | 0.00 | 0.00 | 0.00 | 61 | 1014.4 |
| 20260831073706 | 83 | 171 | 4.0 | 5.0 | 0.00 | 0.00 | 0.00 | 60 | 1014.3 |
| 20260831073205 | 83 | 166 | 4.0 | 5.0 | 0.00 | 0.00 | 0.00 | 60 | 1014.4 |
| 20260831072700 | 83 | 159 | 3.0 | 6.0 | 0.00 | 0.00 | 0.00 | 59 | 1014.4 |
| 20260831072157 | 83 | 176 | 4.0 | 5.0 | 0.00 | 0.00 | 0.00 | 59 | 1014.4 |
| 20260831071656 | 84 | 174 | 4.0 | 6.0 | 0.00 | 0.00 | 0.00 | 59 | 1014.3 |
| 20260831071151 | 83 | 166 | 4.0 | 6.0 | 0.00 | 0.00 | 0.00 | 59 | 1014.3 |
| 20260831070650 | 83 | 160 | 4.0 | 4.0 | 0.00 | 0.00 | 0.00 | 59 | 1014.5 |
| 20260831070145 | 84 | 162 | 3.0 | 6.0 | 0.00 | 0.00 | 0.00 | 58 | 1014.4 |
| 20260831065644 | 84 | 174 | 4.0 | 4.0 | 0.00 | 0.00 | 0.00 | 58 | 1014.5 |
| 20260831065143 | 84 | 160 | 3.0 | 5.0 | 0.00 | 0.00 | 0.00 | 58 | 1014.5 |
| 20260831064637 | 84 | 173 | 3.0 | 5.0 | 0.00 | 0.00 | 0.00 | 57 | 1014.4 |
| 20260831064133 | 84 | 180 | 4.0 | 6.0 | 0.00 | 0.00 | 0.00 | 57 | 1014.3 |
| 20260831063629 | 84 | 163 | 3.0 | 5.0 | 0.00 | 0.00 | 0.00 | 57 | 1014.2 |
| 20260831063124 | 84 | 162 | 4.0 | 4.0 | 0.00 | 0.00 | 0.00 | 57 | 1014.2 |
| 20260831062624 | 85 | 189 | 3.0 | 4.0 | 0.00 | 0.00 | 0.00 | 56 | 1014.3 |
| 20260831062124 | 85 | 166 | 4.0 | 6.0 | 0.00 | 0.00 | 0.00 | 56 | 1014.3 |
| 20260831061622 | 85 | 166 | 5.0 | 6.0 | 0.00 | 0.00 | 0.00 | 56 | 1014.5 |
| 20260831061118 | 85 | 160 | 3.0 | 5.0 | 0.00 | 0.00 | 0.00 | 56 | 1014.4 |
| 20260831060614 | 85 | 173 | 2.0 | 5.0 | 0.00 | 0.00 | 0.00 | 56 | 1014.6 |
| 20260831060109 | 85 | 180 | 2.0 | 4.0 | 0.00 | 0.00 | 0.00 | 56 | 1014.6 |
| 20260831055608 | 84 | 171 | 4.0 | 5.0 | 0.00 | 0.00 | 0.00 | 55 | 1014.5 |
| 20260831055104 | 85 | 161 | 2.0 | 5.0 | 0.00 | 0.00 | 0.00 | 55 | 1014.5 |
| 20260831054603 | 84 | 151 | 3.0 | 4.0 | 0.00 | 0.00 | 0.00 | 55 | 1014.4 |
| 20260831054102 | 84 | 149 | 2.0 | 4.0 | 0.00 | 0.00 | 0.00 | 55 | 1014.4 |
| 20260831053601 | 84 | 166 | 2.0 | 3.0 | 0.00 | 0.00 | 0.00 | 57 | 1014.4 |
| 20260831053056 | 85 | 155 | 3.0 | 3.0 | 0.00 | 0.00 | 0.00 | 55 | 1014.3 |
| 20260831052555 | 84 | 163 | 1.0 | 2.0 | 0.00 | 0.00 | 0.00 | 55 | 1014.5 |
| 20260831052055 | 84 | 149 | 2.0 | 2.0 | 0.00 | 0.00 | 0.00 | 55 | 1014.2 |
| 20260831051553 | 85 | 153 | 2.0 | 2.0 | 0.00 | 0.00 | 0.00 | 54 | 1014.2 |
| 20260831051053 | 85 | 167 | 0.0 | 2.0 | 0.00 | 0.00 | 0.00 | 54 | 1014.2 |
| 20260831050553 | 86 | 169 | 1.0 | 3.0 | 0.00 | 0.00 | 0.00 | 53 | 1014.2 |
| 20260831050051 | 86 | 128 | 0.0 | 2.0 | 0.00 | 0.00 | 0.00 | 52 | 1014.2 |
| 20260831045551 | 87 | 161 | 2.0 | 4.0 | 0.00 | 0.00 | 0.00 | 51 | 1014.2 |
| 20260831045051 | 87 | 156 | 2.0 | 3.0 | 0.00 | 0.00 | 0.00 | 51 | 1014.0 |
| 20260831044547 | 87 | 164 | 2.0 | 4.0 | 0.00 | 0.00 | 0.00 | 51 | 1014.1 |
| 20260831044042 | 87 | 162 | 4.0 | 4.0 | 0.00 | 0.00 | 0.00 | 50 | 1014.2 |
| 20260831043537 | 87 | 172 | 2.0 | 4.0 | 0.00 | 0.00 | 0.00 | 50 | 1014.1 |
| 20260831043032 | 87 | 147 | 4.0 | 6.0 | 0.00 | 0.00 | 0.00 | 50 | 1014.2 |
| 20260831042532 | 87 | 151 | 4.0 | 5.0 | 0.00 | 0.00 | 0.00 | 49 | 1014.2 |
| 20260831042032 | 88 | 163 | 4.0 | 6.0 | 0.00 | 0.00 | 0.00 | 49 | 1014.1 |
| 20260831041522 | 88 | 157 | 4.0 | 6.0 | 0.00 | 0.00 | 0.00 | 49 | 1014.1 |
| 20260831041021 | 88 | 146 | 4.0 | 6.0 | 0.00 | 0.00 | 0.00 | 49 | 1014.0 |